Miscellaneous Local Product
Issued by NWS Hastings, NE

Home | Current Version | Previous Version | Graphics & Text | Print | Product List | Glossary On
Versions: 1 2 3 4 5 6 7 8 9 10 11 12 13 14 15 16 17 18 19 20 21 22 23 24 25 26 27 28 29 30 31 32 33 34 35 36 37 38 39 40 41 42 43 44 45 46 47 48 49 50
000
AXUS43 KGID 020902
MISGRI

GID CWA HOURLY WEATHER ROUNDUP
NATIONAL WEATHER SERVICE HASTINGS NE
400 AM CDT SUN AUG 02 2015

NOTE: "FAIR" INDICATES FEW OR NO CLOUDS BELOW 12,000 FEET WITH NO
SIGNIFICANT WEATHER AND/OR OBSTRUCTIONS TO VISIBILITY.

...SOUTH CENTRAL NEBRASKA...

CITY           SKY/WX    TMP DP  RH WIND       PRES   REMARKS
GRAND ISLAND   PTCLDY    68  65  90 W6        29.91S
HASTINGS       PTCLDY    70  63  78 SW6       29.91F
KEARNEY        MOCLDY    70  61  73 W5        29.92S
ORD            CLEAR     63  61  93 CALM      29.87F
YORK           PTCLDY    68  66  94 NE6       29.91R
AURORA         PTCLDY    70  67  92 SW8       29.89F
LEXINGTON      CLOUDY    66  64  91 CALM      29.93F
HOLDREGE       MOCLDY    68  62  79 SW6       29.93S
HEBRON         CLEAR     72  66  82 SW7       29.90F

...NEBRASKA PANHANDLE...

CITY           SKY/WX    TMP DP  RH WIND       PRES   REMARKS
CHADRON        CLEAR     66  55  67 W6        29.93F
ALLIANCE       CLEAR     62  55  77 W3        29.99F
SCOTTSBLUFF    CLEAR     64  57  78 N7        30.00F
SIDNEY         MOCLDY    62  55  77 SW8       30.04F

...WESTERN AND NORTH CENTRAL NEBRASKA...

CITY           SKY/WX    TMP DP  RH WIND       PRES   REMARKS
VALENTINE      NOT AVBL
AINSWORTH      CLEAR     65  59  81 SW9       29.90S
ONEILL         CLEAR     64  60  90 SW9       29.85F
BROKEN BOW     PTCLDY    60  58  92 CALM      29.93F
IMPERIAL       MOCLDY    67  58  72 CALM      29.97F
NORTH PLATTE   MOCLDY    61  58  90 CALM      29.95F
MCCOOK         PTCLDY    68  60  75 CALM      29.94S

...EASTERN NEBRASKA...

CITY           SKY/WX    TMP DP  RH WIND       PRES   REMARKS
NORFOLK        PTCLDY    63  62  97 SW5       29.84F
SO SIOUX CITY  PTCLDY    69  64  84 SE5       29.81F
TEKAMAH        TSTM      74  71  91 SW22G29   29.83S FOG
COLUMBUS       PTCLDY    75  61  60 SW10      29.85S
ALBION         CLEAR     67  64  89 S3        29.86F
OMAHA EPPLEY   CLOUDY    74  69  85 S10       29.85F
MILLARD        MOCLDY    74  71  91 SE6       29.86F
LINCOLN        PTCLDY    74  68  81 S7        29.88S
NEBRASKA CITY  PTCLDY    70  69  97 S9        29.88F
BEATRICE       CLEAR     74  68  82 S10       29.89F
FALLS CITY     CLEAR     72  67  84 S10       29.89F

...NORTHERN KANSAS...

CITY           SKY/WX    TMP DP  RH WIND       PRES   REMARKS
GOODLAND       PTCLDY    69  64  84 SW7       29.99F
HILL CITY      MOCLDY    69  65  86 CALM      29.94S
NORTON         SUNNY     68  61  77 W5        29.93S
PHILLIPSBURG   CLEAR     73  66  78 CALM      29.91F
SMITH CENTER   CLEAR     68  64  88 SE5       29.92S
HAYS           MOCLDY    72  61  68 S5        29.94S
RUSSELL        MOCLDY    71  69  93 S8        29.92F
CONCORDIA      PTCLDY    73  69  87 S13       29.91F
SALINA         PTCLDY    75  70  84 S7        29.92F
TOPEKA         CLEAR     74  69  85 S3        29.92F



USA.gov is the U.S. government's official web portal to all federal, state and local government web resources and services.